{"data":{"norad_id":49218,"intl_designator":"2021-083AJ","name":"ONEWEB-0355","alt_names":[],"object_type":"PAYLOAD","status":"ACTIVE","operator":null,"country":"UK","launch_date":"2021-09-14","launch_site_code":"TYMSC","launch_vehicle":null,"mission":null,"orbit_class":"UNKNOWN","rcs_meters":null,"size_class":null,"mass_kg":null,"dimensions":null,"purposes":["comms"],"wikipedia_slug":null,"has_3d_model":false,"image_url":null,"decayed_at":null,"tle_current":{"epoch":"2026-05-25T01:09:35.305056Z","epoch_age_seconds":85076,"freshness":"FRESH","line1":"1 49218U 21083AJ  26145.04832529 -.00000040  00000+0 -14397-3 0  9991","line2":"2 49218  87.8930 324.8455 0001596  96.0465 264.0846 13.13468015227860","mean_motion":13.13468015,"eccentricity":0.0001596,"inclination_deg":87.893,"raan_deg":324.8455,"arg_perigee_deg":96.0465,"mean_anomaly_deg":264.0846,"bstar":-0.00014397,"rev_number":22786,"period_min":109.63342719845,"perigee_km":1208.5620143495,"apogee_km":1210.9840752358,"semimajor_km":7587.9100447927,"source":"CELESTRAK","updated_at":"2026-05-25T13:38:22.518550Z"}}}